Year,Month,Day,Hour,Minute,Value (Times are PST for temperature in C)
2017,05,25,00,00,11.00
2017,05,25,00,01,11.00
2017,05,25,00,02,11.00
2017,05,25,00,03,11.00
2017,05,25,00,04,11.10
2017,05,25,00,05,11.10
2017,05,25,00,06,11.00
2017,05,25,00,07,11.00
2017,05,25,00,08,11.00
2017,05,25,00,09,11.00
2017,05,25,00,10,11.00
2017,05,25,00,11,11.00
2017,05,25,00,12,11.00
2017,05,25,00,13,11.00
2017,05,25,00,14,11.00
2017,05,25,00,15,10.90
2017,05,25,00,16,10.90
2017,05,25,00,17,10.90
2017,05,25,00,18,10.90
2017,05,25,00,19,10.90
2017,05,25,00,20,10.90
2017,05,25,00,21,10.90
2017,05,25,00,22,10.80
2017,05,25,00,23,10.80
2017,05,25,00,24,10.80
2017,05,25,00,25,10.80
2017,05,25,00,26,10.80
2017,05,25,00,27,10.80
2017,05,25,00,28,10.80
2017,05,25,00,29,10.80
2017,05,25,00,30,10.80
2017,05,25,00,31,10.80
2017,05,25,00,32,10.80
2017,05,25,00,33,10.80
2017,05,25,00,34,10.80
2017,05,25,00,35,10.80
2017,05,25,00,36,10.80
2017,05,25,00,37,10.80
2017,05,25,00,38,10.80
2017,05,25,00,39,10.90
2017,05,25,00,40,10.90
2017,05,25,00,41,10.90
2017,05,25,00,42,10.90
2017,05,25,00,43,10.90
2017,05,25,00,44,10.90
2017,05,25,00,45,10.90
2017,05,25,00,46,10.80
2017,05,25,00,47,10.80
2017,05,25,00,48,10.80
2017,05,25,00,49,10.80
2017,05,25,00,50,10.80
2017,05,25,00,51,10.80
2017,05,25,00,52,10.80
2017,05,25,00,53,10.80
2017,05,25,00,54,10.80
2017,05,25,00,55,10.80
2017,05,25,00,56,10.80
2017,05,25,00,57,10.80
2017,05,25,00,58,10.80
2017,05,25,00,59,10.80
2017,05,25,01,00,10.80
2017,05,25,01,01,10.70
2017,05,25,01,02,10.70
2017,05,25,01,03,10.80
2017,05,25,01,04,10.70
2017,05,25,01,05,10.70
2017,05,25,01,06,10.70
2017,05,25,01,07,10.70
2017,05,25,01,08,10.70
2017,05,25,01,09,10.70
2017,05,25,01,10,10.70
2017,05,25,01,11,10.70
2017,05,25,01,12,10.70
2017,05,25,01,13,10.70
2017,05,25,01,14,10.70
2017,05,25,01,15,10.70
2017,05,25,01,16,10.70
2017,05,25,01,17,10.60
2017,05,25,01,18,10.60
2017,05,25,01,19,10.60
2017,05,25,01,20,10.60
2017,05,25,01,21,10.50
2017,05,25,01,22,10.50
2017,05,25,01,23,10.50
2017,05,25,01,24,10.40
2017,05,25,01,25,10.40
2017,05,25,01,26,10.40
2017,05,25,01,27,10.40
2017,05,25,01,28,10.40
2017,05,25,01,29,10.40
2017,05,25,01,30,10.40
2017,05,25,01,31,10.30
2017,05,25,01,32,10.30
2017,05,25,01,33,10.30
2017,05,25,01,34,10.30
2017,05,25,01,35,10.30
2017,05,25,01,36,10.30
2017,05,25,01,37,10.20
2017,05,25,01,38,10.20
2017,05,25,01,39,10.20
2017,05,25,01,40,10.20
2017,05,25,01,41,10.20
2017,05,25,01,42,10.10
2017,05,25,01,43,10.10
2017,05,25,01,44,10.10
2017,05,25,01,45,10.10
2017,05,25,01,46,10.00
2017,05,25,01,47,10.00
2017,05,25,01,48,10.00
2017,05,25,01,49,10.00
2017,05,25,01,50,9.90
2017,05,25,01,51,9.90
2017,05,25,01,52,9.90
2017,05,25,01,53,9.90
2017,05,25,01,54,9.90
2017,05,25,01,55,9.80
2017,05,25,01,56,9.80
2017,05,25,01,57,9.80
2017,05,25,01,58,9.80
2017,05,25,01,59,9.80
2017,05,25,02,00,9.80
2017,05,25,02,01,9.80
2017,05,25,02,02,9.80
2017,05,25,02,03,9.70
2017,05,25,02,04,9.70
2017,05,25,02,05,9.70
2017,05,25,02,06,9.70
2017,05,25,02,07,9.70
2017,05,25,02,08,9.70
2017,05,25,02,09,9.60
2017,05,25,02,10,9.60
2017,05,25,02,11,9.60
2017,05,25,02,12,9.60
2017,05,25,02,13,9.60
2017,05,25,02,14,9.50
2017,05,25,02,15,9.50
2017,05,25,02,16,9.50
2017,05,25,02,17,9.50
2017,05,25,02,18,9.50
2017,05,25,02,19,9.50
2017,05,25,02,20,9.50
2017,05,25,02,21,9.50
2017,05,25,02,22,9.50
2017,05,25,02,23,9.50
2017,05,25,02,24,9.40
2017,05,25,02,25,9.40
2017,05,25,02,26,9.40
2017,05,25,02,27,9.40
2017,05,25,02,28,9.40
2017,05,25,02,29,9.40
2017,05,25,02,30,9.40
2017,05,25,02,31,9.40
2017,05,25,02,32,9.30
2017,05,25,02,33,9.30
2017,05,25,02,34,9.30
2017,05,25,02,35,9.30
2017,05,25,02,36,9.30
2017,05,25,02,37,9.30
2017,05,25,02,38,9.30
2017,05,25,02,39,9.30
2017,05,25,02,40,9.30
2017,05,25,02,41,9.30
2017,05,25,02,42,9.30
2017,05,25,02,43,9.30
2017,05,25,02,44,9.30
2017,05,25,02,45,9.30
2017,05,25,02,46,9.30
2017,05,25,02,47,9.30
2017,05,25,02,48,9.30
2017,05,25,02,49,9.30
2017,05,25,02,50,9.30
2017,05,25,02,51,9.30
2017,05,25,02,52,9.30
2017,05,25,02,53,9.30
2017,05,25,02,54,9.30
2017,05,25,02,55,9.30
2017,05,25,02,56,9.30
2017,05,25,02,57,9.30
2017,05,25,02,58,9.30
2017,05,25,02,59,9.30
2017,05,25,03,00,9.20
2017,05,25,03,01,9.20
2017,05,25,03,02,9.20
2017,05,25,03,03,9.20
2017,05,25,03,04,9.20
2017,05,25,03,05,9.20
2017,05,25,03,06,9.20
2017,05,25,03,07,9.20
2017,05,25,03,08,9.20
2017,05,25,03,09,9.20
2017,05,25,03,10,9.10
2017,05,25,03,11,9.10
2017,05,25,03,12,9.10
2017,05,25,03,13,9.10
2017,05,25,03,14,9.10
2017,05,25,03,15,9.10
2017,05,25,03,16,9.10
2017,05,25,03,17,9.10
2017,05,25,03,18,9.10
2017,05,25,03,19,9.10
2017,05,25,03,20,9.00
2017,05,25,03,21,9.00
2017,05,25,03,22,9.00
2017,05,25,03,23,9.00
2017,05,25,03,24,8.90
2017,05,25,03,25,8.90
2017,05,25,03,26,8.90
2017,05,25,03,27,8.90
2017,05,25,03,28,8.90
2017,05,25,03,29,8.80
2017,05,25,03,30,8.80
2017,05,25,03,31,8.80
2017,05,25,03,32,8.80
2017,05,25,03,33,8.80
2017,05,25,03,34,8.80
2017,05,25,03,35,8.80
2017,05,25,03,36,8.80
2017,05,25,03,37,8.80
2017,05,25,03,38,8.80
2017,05,25,03,39,8.80
2017,05,25,03,40,8.80
2017,05,25,03,41,8.80
2017,05,25,03,42,8.80
2017,05,25,03,43,8.70
2017,05,25,03,44,8.70
2017,05,25,03,45,8.70
2017,05,25,03,46,8.70
2017,05,25,03,47,8.70
2017,05,25,03,48,8.70
2017,05,25,03,49,8.70
2017,05,25,03,50,8.70
2017,05,25,03,51,8.70
2017,05,25,03,52,8.70
2017,05,25,03,53,8.70
2017,05,25,03,54,8.70
2017,05,25,03,55,8.70
2017,05,25,03,56,8.70
2017,05,25,03,57,8.70
2017,05,25,03,58,8.70
2017,05,25,03,59,8.70
2017,05,25,04,00,8.70
2017,05,25,04,01,8.70
2017,05,25,04,02,8.70
2017,05,25,04,03,8.70
2017,05,25,04,04,8.70
2017,05,25,04,05,8.70
2017,05,25,04,06,8.70
2017,05,25,04,07,8.70
2017,05,25,04,08,8.70
2017,05,25,04,09,8.70
2017,05,25,04,10,8.70
2017,05,25,04,11,8.70
2017,05,25,04,12,8.70
2017,05,25,04,13,8.70
2017,05,25,04,14,8.70
2017,05,25,04,15,8.70
2017,05,25,04,16,8.70
2017,05,25,04,17,8.70
2017,05,25,04,18,8.70
2017,05,25,04,19,8.70
2017,05,25,04,20,8.60
2017,05,25,04,21,8.60
2017,05,25,04,22,8.60
2017,05,25,04,23,8.60
2017,05,25,04,24,8.60
2017,05,25,04,25,8.60
2017,05,25,04,26,8.60
2017,05,25,04,27,8.60
2017,05,25,04,28,8.60
2017,05,25,04,29,8.60
2017,05,25,04,30,8.60
2017,05,25,04,31,8.60
2017,05,25,04,32,8.60
2017,05,25,04,33,8.60
2017,05,25,04,34,8.60
2017,05,25,04,35,8.60
2017,05,25,04,36,8.50
2017,05,25,04,37,8.60
2017,05,25,04,38,8.60
2017,05,25,04,39,8.50
2017,05,25,04,40,8.50
2017,05,25,04,41,8.50
2017,05,25,04,42,8.50
2017,05,25,04,43,8.60
2017,05,25,04,44,8.60
2017,05,25,04,45,8.60
2017,05,25,04,46,8.60
2017,05,25,04,47,8.60
2017,05,25,04,48,8.60
2017,05,25,04,49,8.60
2017,05,25,04,50,8.60
2017,05,25,04,51,8.60
2017,05,25,04,52,8.60
2017,05,25,04,53,8.60
2017,05,25,04,54,8.60
2017,05,25,04,55,8.70
2017,05,25,04,56,8.70
2017,05,25,04,57,8.70
2017,05,25,04,58,8.70
2017,05,25,04,59,8.70
2017,05,25,05,00,8.80
2017,05,25,05,01,8.80
2017,05,25,05,02,8.80
2017,05,25,05,03,8.90
2017,05,25,05,04,8.90
2017,05,25,05,05,8.90
2017,05,25,05,06,8.90
2017,05,25,05,07,9.00
2017,05,25,05,08,9.00
2017,05,25,05,09,9.00
2017,05,25,05,10,9.10
2017,05,25,05,11,9.10
2017,05,25,05,12,9.10
2017,05,25,05,13,9.10
2017,05,25,05,14,9.10
2017,05,25,05,15,9.10
2017,05,25,05,16,9.10
2017,05,25,05,17,9.10
2017,05,25,05,18,9.10
2017,05,25,05,19,9.10
2017,05,25,05,20,9.20
2017,05,25,05,21,9.20
2017,05,25,05,22,9.20
2017,05,25,05,23,9.20
2017,05,25,05,24,9.20
2017,05,25,05,25,9.20
2017,05,25,05,26,9.20
2017,05,25,05,27,9.20
2017,05,25,05,28,9.20
2017,05,25,05,29,9.20
2017,05,25,05,30,9.20
2017,05,25,05,31,9.20
2017,05,25,05,32,9.20
2017,05,25,05,33,9.20
2017,05,25,05,34,9.20
2017,05,25,05,35,9.20
2017,05,25,05,36,9.20
2017,05,25,05,37,9.20
2017,05,25,05,38,9.20
2017,05,25,05,39,9.20
2017,05,25,05,40,9.10
2017,05,25,05,41,9.10
2017,05,25,05,42,9.10
2017,05,25,05,43,9.10
2017,05,25,05,44,9.10
2017,05,25,05,45,9.10
2017,05,25,05,46,9.10
2017,05,25,05,47,9.10
2017,05,25,05,48,9.10
2017,05,25,05,49,9.20
2017,05,25,05,50,9.20
2017,05,25,05,51,9.20
2017,05,25,05,52,9.20
2017,05,25,05,53,9.20
2017,05,25,05,54,9.20
2017,05,25,05,55,9.30
2017,05,25,05,56,9.20
2017,05,25,05,57,9.30
2017,05,25,05,58,9.30
2017,05,25,05,59,9.30
2017,05,25,06,00,9.30
2017,05,25,06,01,9.30
2017,05,25,06,02,9.30
2017,05,25,06,03,9.40
2017,05,25,06,04,9.40
2017,05,25,06,05,9.40
2017,05,25,06,06,9.40
2017,05,25,06,07,9.40
2017,05,25,06,08,9.40
2017,05,25,06,09,9.40
2017,05,25,06,10,9.50
2017,05,25,06,11,9.50
2017,05,25,06,12,9.50
2017,05,25,06,13,9.60
2017,05,25,06,14,9.60
2017,05,25,06,15,9.60
2017,05,25,06,16,9.70
2017,05,25,06,17,9.70
2017,05,25,06,18,9.70
2017,05,25,06,19,9.80
2017,05,25,06,20,9.80
2017,05,25,06,21,9.80
2017,05,25,06,22,9.80
2017,05,25,06,23,9.80
2017,05,25,06,24,9.90
2017,05,25,06,25,9.90
2017,05,25,06,26,9.90
2017,05,25,06,27,9.90
2017,05,25,06,28,9.90
2017,05,25,06,29,9.90
2017,05,25,06,30,10.00
2017,05,25,06,31,10.00
2017,05,25,06,32,10.10
2017,05,25,06,33,10.10
2017,05,25,06,34,10.10
2017,05,25,06,35,10.10
2017,05,25,06,36,10.10
2017,05,25,06,37,10.20
2017,05,25,06,38,10.20
2017,05,25,06,39,10.20
2017,05,25,06,40,10.20
2017,05,25,06,41,10.20
2017,05,25,06,42,10.20
2017,05,25,06,43,10.20
2017,05,25,06,44,10.30
2017,05,25,06,45,10.30
2017,05,25,06,46,10.30
2017,05,25,06,47,10.30
2017,05,25,06,48,10.30
2017,05,25,06,49,10.40
2017,05,25,06,50,10.40
2017,05,25,06,51,10.50
2017,05,25,06,52,10.50
2017,05,25,06,53,10.60
2017,05,25,06,54,10.60
2017,05,25,06,55,10.60
2017,05,25,06,56,10.60
2017,05,25,06,57,10.70
2017,05,25,06,58,10.70
2017,05,25,06,59,10.80
2017,05,25,07,00,10.80
2017,05,25,07,01,10.80
2017,05,25,07,02,10.80
2017,05,25,07,03,10.90
2017,05,25,07,04,10.90
2017,05,25,07,05,10.90
2017,05,25,07,06,11.00
2017,05,25,07,07,11.00
2017,05,25,07,08,11.10
2017,05,25,07,09,11.10
2017,05,25,07,10,11.10
2017,05,25,07,11,11.10
2017,05,25,07,12,11.20
2017,05,25,07,13,11.20
2017,05,25,07,14,11.20
2017,05,25,07,15,11.20
2017,05,25,07,16,11.30
2017,05,25,07,17,11.30
2017,05,25,07,18,11.30
2017,05,25,07,19,11.30
2017,05,25,07,20,11.40
2017,05,25,07,21,11.40
2017,05,25,07,22,11.40
2017,05,25,07,23,11.40
2017,05,25,07,24,11.50
2017,05,25,07,25,11.50
2017,05,25,07,26,11.50
2017,05,25,07,27,11.60
2017,05,25,07,28,11.60
2017,05,25,07,29,11.60
2017,05,25,07,30,11.60
2017,05,25,07,31,11.70
2017,05,25,07,32,11.70
2017,05,25,07,33,11.70
2017,05,25,07,34,11.80
2017,05,25,07,35,11.80
2017,05,25,07,36,11.80
2017,05,25,07,37,11.90
2017,05,25,07,38,11.90
2017,05,25,07,39,11.90
2017,05,25,07,40,12.00
2017,05,25,07,41,12.00
2017,05,25,07,42,12.00
2017,05,25,07,43,12.10
2017,05,25,07,44,12.10
2017,05,25,07,45,12.10
2017,05,25,07,46,12.20
2017,05,25,07,47,12.20
2017,05,25,07,48,12.20
2017,05,25,07,49,12.30
2017,05,25,07,50,12.30
2017,05,25,07,51,12.30
2017,05,25,07,52,12.40
2017,05,25,07,53,12.40
2017,05,25,07,54,12.50
2017,05,25,07,55,12.50
2017,05,25,07,56,12.60
2017,05,25,07,57,12.60
2017,05,25,07,58,12.60
2017,05,25,07,59,12.70
2017,05,25,08,00,12.70
2017,05,25,08,01,12.70
2017,05,25,08,02,12.70
2017,05,25,08,03,12.60
2017,05,25,08,04,12.70
2017,05,25,08,05,12.70
2017,05,25,08,06,12.70
2017,05,25,08,07,12.70
2017,05,25,08,08,12.80
2017,05,25,08,09,12.80
2017,05,25,08,10,12.90
2017,05,25,08,11,12.90
2017,05,25,08,12,13.00
2017,05,25,08,13,13.00
2017,05,25,08,14,13.10
2017,05,25,08,15,13.10
2017,05,25,08,16,13.10
2017,05,25,08,17,13.10
2017,05,25,08,18,13.10
2017,05,25,08,19,13.10
2017,05,25,08,20,13.10
2017,05,25,08,21,13.20
2017,05,25,08,22,13.20
2017,05,25,08,23,13.30
2017,05,25,08,24,13.30
2017,05,25,08,25,13.30
2017,05,25,08,26,13.30
2017,05,25,08,27,13.40
2017,05,25,08,28,13.40
2017,05,25,08,29,13.40
2017,05,25,08,30,13.40
2017,05,25,08,31,13.40
2017,05,25,08,32,13.40
2017,05,25,08,33,13.50
2017,05,25,08,34,13.50
2017,05,25,08,35,13.50
2017,05,25,08,36,13.50
2017,05,25,08,37,13.50
2017,05,25,08,38,13.60
2017,05,25,08,39,13.60
2017,05,25,08,40,13.60
2017,05,25,08,41,13.70
2017,05,25,08,42,13.70
2017,05,25,08,43,13.70
2017,05,25,08,44,13.70
2017,05,25,08,45,13.70
2017,05,25,08,46,13.80
2017,05,25,08,47,13.80
2017,05,25,08,48,13.80
2017,05,25,08,49,13.80
2017,05,25,08,50,13.80
2017,05,25,08,51,13.80
2017,05,25,08,52,13.90
2017,05,25,08,53,13.90
2017,05,25,08,54,13.90
2017,05,25,08,55,14.00
2017,05,25,08,56,14.00
2017,05,25,08,57,13.90
2017,05,25,08,58,13.90
2017,05,25,08,59,14.00
2017,05,25,09,00,14.00
2017,05,25,09,01,14.00
2017,05,25,09,02,14.00
2017,05,25,09,03,14.00
2017,05,25,09,04,14.00
2017,05,25,09,05,14.10
2017,05,25,09,06,14.20
2017,05,25,09,07,14.20
2017,05,25,09,08,14.20
2017,05,25,09,09,14.30
2017,05,25,09,10,14.30
2017,05,25,09,11,14.30
2017,05,25,09,12,14.40
2017,05,25,09,13,14.60
2017,05,25,09,14,14.60
2017,05,25,09,15,14.70
2017,05,25,09,16,14.80
2017,05,25,09,17,14.80
2017,05,25,09,18,14.80
2017,05,25,09,19,14.80
2017,05,25,09,20,14.80
2017,05,25,09,21,14.80
2017,05,25,09,22,14.80
2017,05,25,09,23,14.80
2017,05,25,09,24,14.90
2017,05,25,09,25,14.90
2017,05,25,09,26,14.80
2017,05,25,09,27,14.80
2017,05,25,09,28,14.80
2017,05,25,09,29,14.90
2017,05,25,09,30,14.90
2017,05,25,09,31,15.00
2017,05,25,09,32,15.00
2017,05,25,09,33,15.10
2017,05,25,09,34,15.20
2017,05,25,09,35,15.30
2017,05,25,09,36,15.30
2017,05,25,09,37,15.30
2017,05,25,09,38,15.40
2017,05,25,09,39,15.40
2017,05,25,09,40,15.50
2017,05,25,09,41,15.50
2017,05,25,09,42,15.60
2017,05,25,09,43,15.60
2017,05,25,09,44,15.60
2017,05,25,09,45,15.60
2017,05,25,09,46,15.60
2017,05,25,09,47,15.60
2017,05,25,09,48,15.60
2017,05,25,09,49,15.70
2017,05,25,09,50,15.70
2017,05,25,09,51,15.70
2017,05,25,09,52,15.70
2017,05,25,09,53,15.70
2017,05,25,09,54,15.70
2017,05,25,09,55,15.70
2017,05,25,09,56,15.70
2017,05,25,09,57,15.60
2017,05,25,09,58,15.60
2017,05,25,09,59,15.70
2017,05,25,10,00,15.70
2017,05,25,10,01,15.70
2017,05,25,10,02,15.70
2017,05,25,10,03,15.80
2017,05,25,10,04,15.80
2017,05,25,10,05,15.80
2017,05,25,10,06,15.90
2017,05,25,10,07,15.90
2017,05,25,10,08,15.90
2017,05,25,10,09,15.90
2017,05,25,10,10,16.00
2017,05,25,10,11,16.00
2017,05,25,10,12,16.10
2017,05,25,10,13,16.10
2017,05,25,10,14,16.10
2017,05,25,10,15,16.00
2017,05,25,10,16,16.10
2017,05,25,10,17,16.10
2017,05,25,10,18,16.00
2017,05,25,10,19,16.00
2017,05,25,10,20,16.10
2017,05,25,10,21,16.20
2017,05,25,10,22,16.30
2017,05,25,10,23,16.30
2017,05,25,10,24,16.30
2017,05,25,10,25,16.30
2017,05,25,10,26,16.40
2017,05,25,10,27,16.50
2017,05,25,10,28,16.60
2017,05,25,10,29,16.70
2017,05,25,10,30,16.70
2017,05,25,10,31,16.60
2017,05,25,10,32,16.60
2017,05,25,10,33,16.60
2017,05,25,10,34,16.50
2017,05,25,10,35,16.60
2017,05,25,10,36,16.60
2017,05,25,10,37,16.60
2017,05,25,10,38,16.60
2017,05,25,10,39,16.50
2017,05,25,10,40,16.50
2017,05,25,10,41,16.40
2017,05,25,10,42,16.40
2017,05,25,10,43,16.40
2017,05,25,10,44,16.40
2017,05,25,10,45,16.30
2017,05,25,10,46,16.40
2017,05,25,10,47,16.40
2017,05,25,10,48,16.40
2017,05,25,10,49,16.40
2017,05,25,10,50,16.50
2017,05,25,10,51,16.50
2017,05,25,10,52,16.60
2017,05,25,10,53,16.60
2017,05,25,10,54,16.60
2017,05,25,10,55,16.50
2017,05,25,10,56,16.40
2017,05,25,10,57,16.50
2017,05,25,10,58,16.50
2017,05,25,10,59,16.60
2017,05,25,11,00,16.70
2017,05,25,11,01,16.80
2017,05,25,11,02,16.90
2017,05,25,11,03,17.00
2017,05,25,11,04,17.10
2017,05,25,11,05,17.20
2017,05,25,11,06,17.20
2017,05,25,11,07,17.30
2017,05,25,11,08,17.40
2017,05,25,11,09,17.40
2017,05,25,11,10,17.40
2017,05,25,11,11,17.40
2017,05,25,11,12,17.40
2017,05,25,11,13,17.40
2017,05,25,11,14,17.50
2017,05,25,11,15,17.60
2017,05,25,11,16,17.60
2017,05,25,11,17,17.50
2017,05,25,11,18,17.60
2017,05,25,11,19,17.60
2017,05,25,11,20,17.70
2017,05,25,11,21,17.70
2017,05,25,11,22,17.70
2017,05,25,11,23,17.70
2017,05,25,11,24,17.70
2017,05,25,11,25,17.80
2017,05,25,11,26,17.80
2017,05,25,11,27,17.80
2017,05,25,11,28,17.90
2017,05,25,11,29,18.00
2017,05,25,11,30,18.00
2017,05,25,11,31,18.00
2017,05,25,11,32,18.10
2017,05,25,11,33,18.00
2017,05,25,11,34,17.90
2017,05,25,11,35,17.80
2017,05,25,11,36,17.80
2017,05,25,11,37,17.80
2017,05,25,11,38,17.70
2017,05,25,11,39,17.70
2017,05,25,11,40,17.70
2017,05,25,11,41,17.70
2017,05,25,11,42,17.70
2017,05,25,11,43,17.70
2017,05,25,11,44,17.70
2017,05,25,11,45,17.60
2017,05,25,11,46,17.70
2017,05,25,11,47,17.70
2017,05,25,11,48,17.80
2017,05,25,11,49,17.90
2017,05,25,11,50,18.00
2017,05,25,11,51,18.10
2017,05,25,11,52,18.10
2017,05,25,11,53,18.20
2017,05,25,11,54,18.20
2017,05,25,11,55,18.20
2017,05,25,11,56,18.20
2017,05,25,11,57,18.20
2017,05,25,11,58,18.10
2017,05,25,11,59,18.10
2017,05,25,12,00,18.00
2017,05,25,12,01,18.00
2017,05,25,12,02,18.10
2017,05,25,12,03,18.00
2017,05,25,12,04,18.00
2017,05,25,12,05,17.90
2017,05,25,12,06,17.90
2017,05,25,12,07,17.90
2017,05,25,12,08,18.00
2017,05,25,12,09,18.00
2017,05,25,12,10,18.10
2017,05,25,12,11,18.10
2017,05,25,12,12,18.20
2017,05,25,12,13,18.30
2017,05,25,12,14,18.50
2017,05,25,12,15,18.60
2017,05,25,12,16,18.70
2017,05,25,12,17,18.70
2017,05,25,12,18,18.70
2017,05,25,12,19,18.70
2017,05,25,12,20,18.70
2017,05,25,12,21,18.70
2017,05,25,12,22,18.80
2017,05,25,12,23,18.90
2017,05,25,12,24,18.90
2017,05,25,12,25,19.00
2017,05,25,12,26,19.00
2017,05,25,12,27,19.10
2017,05,25,12,28,19.20
2017,05,25,12,29,19.20
2017,05,25,12,30,19.30
2017,05,25,12,31,19.30
2017,05,25,12,32,19.30
2017,05,25,12,33,19.30
2017,05,25,12,34,19.40
2017,05,25,12,35,19.50
2017,05,25,12,36,19.50
2017,05,25,12,37,19.60
2017,05,25,12,38,19.70
2017,05,25,12,39,19.70
2017,05,25,12,40,19.80
2017,05,25,12,41,19.80
2017,05,25,12,42,19.80
2017,05,25,12,43,19.90
2017,05,25,12,44,19.90
2017,05,25,12,45,19.90
2017,05,25,12,46,19.90
2017,05,25,12,47,19.80
2017,05,25,12,48,19.80
2017,05,25,12,49,19.70
2017,05,25,12,50,19.70
2017,05,25,12,51,19.60
2017,05,25,12,52,19.60
2017,05,25,12,53,19.50
2017,05,25,12,54,19.50
2017,05,25,12,55,19.50
2017,05,25,12,56,19.40
2017,05,25,12,57,19.30
2017,05,25,12,58,19.20
2017,05,25,12,59,19.00
2017,05,25,13,00,18.80
2017,05,25,13,01,18.70
2017,05,25,13,02,18.50
2017,05,25,13,03,18.40
2017,05,25,13,04,18.30
2017,05,25,13,05,18.30
2017,05,25,13,06,18.30
2017,05,25,13,07,18.30
2017,05,25,13,08,18.20
2017,05,25,13,09,18.10
2017,05,25,13,10,18.10
2017,05,25,13,11,18.10
2017,05,25,13,12,18.10
2017,05,25,13,13,18.20
2017,05,25,13,14,18.20
2017,05,25,13,15,18.30
2017,05,25,13,16,18.40
2017,05,25,13,17,18.40
2017,05,25,13,18,18.40
2017,05,25,13,19,18.40
2017,05,25,13,20,18.40
2017,05,25,13,21,18.40
2017,05,25,13,22,18.40
2017,05,25,13,23,18.40
2017,05,25,13,24,18.40
2017,05,25,13,25,18.30
2017,05,25,13,26,18.30
2017,05,25,13,27,18.30
2017,05,25,13,28,18.40
2017,05,25,13,29,18.50
2017,05,25,13,30,18.60
2017,05,25,13,31,18.60
2017,05,25,13,32,18.60
2017,05,25,13,33,18.70
2017,05,25,13,34,18.70
2017,05,25,13,35,18.70
2017,05,25,13,36,18.80
2017,05,25,13,37,18.80
2017,05,25,13,38,18.80
2017,05,25,13,39,18.80
2017,05,25,13,40,18.90
2017,05,25,13,41,18.90
2017,05,25,13,42,18.90
2017,05,25,13,43,18.90
2017,05,25,13,44,18.90
2017,05,25,13,45,18.90
2017,05,25,13,46,18.80
2017,05,25,13,47,18.70
2017,05,25,13,48,18.70
2017,05,25,13,49,18.80
2017,05,25,13,50,18.90
2017,05,25,13,51,19.00
2017,05,25,13,52,19.00
2017,05,25,13,53,19.10
2017,05,25,13,54,19.20
2017,05,25,13,55,19.20
2017,05,25,13,56,19.20
2017,05,25,13,57,19.30
2017,05,25,13,58,19.30
2017,05,25,13,59,19.30
2017,05,25,14,00,19.30
2017,05,25,14,01,19.20
2017,05,25,14,02,19.20
2017,05,25,14,03,19.30
2017,05,25,14,04,19.30
2017,05,25,14,05,19.40
2017,05,25,14,06,19.40
2017,05,25,14,07,19.50
2017,05,25,14,08,19.60
2017,05,25,14,09,19.60
2017,05,25,14,10,19.70
2017,05,25,14,11,19.70
2017,05,25,14,12,19.70
2017,05,25,14,13,19.60
2017,05,25,14,14,19.50
2017,05,25,14,15,19.50
2017,05,25,14,16,19.40
2017,05,25,14,17,19.50
2017,05,25,14,18,19.50
2017,05,25,14,19,19.60
2017,05,25,14,20,19.60
2017,05,25,14,21,19.60
2017,05,25,14,22,19.60
2017,05,25,14,23,19.60
2017,05,25,14,24,19.60
2017,05,25,14,25,19.60
2017,05,25,14,26,19.70
2017,05,25,14,27,19.70
2017,05,25,14,28,19.70
2017,05,25,14,29,19.80
2017,05,25,14,30,19.90
2017,05,25,14,31,19.90
2017,05,25,14,32,19.90
2017,05,25,14,33,19.90
2017,05,25,14,34,19.90
2017,05,25,14,35,19.90
2017,05,25,14,36,19.90
2017,05,25,14,37,19.90
2017,05,25,14,38,19.90
2017,05,25,14,39,19.90
2017,05,25,14,40,19.90
2017,05,25,14,41,19.90
2017,05,25,14,42,19.90
2017,05,25,14,43,19.90
2017,05,25,14,44,19.90
2017,05,25,14,45,19.90
2017,05,25,14,46,20.00
2017,05,25,14,47,20.00
2017,05,25,14,48,20.10
2017,05,25,14,49,20.10
2017,05,25,14,50,20.20
2017,05,25,14,51,20.20
2017,05,25,14,52,20.20
2017,05,25,14,53,20.20
2017,05,25,14,54,20.20
2017,05,25,14,55,20.30
2017,05,25,14,56,20.20
2017,05,25,14,57,20.20
2017,05,25,14,58,20.20
2017,05,25,14,59,20.20
2017,05,25,15,00,20.20
2017,05,25,15,01,20.20
2017,05,25,15,02,20.20
2017,05,25,15,03,20.20
2017,05,25,15,04,20.30
2017,05,25,15,05,20.30
2017,05,25,15,06,20.30
2017,05,25,15,07,20.20
2017,05,25,15,08,20.20
2017,05,25,15,09,20.20
2017,05,25,15,10,20.20
2017,05,25,15,11,20.20
2017,05,25,15,12,20.20
2017,05,25,15,13,20.30
2017,05,25,15,14,20.30
2017,05,25,15,15,20.40
2017,05,25,15,16,20.50
2017,05,25,15,17,20.50
2017,05,25,15,18,20.60
2017,05,25,15,19,20.60
2017,05,25,15,20,20.60
2017,05,25,15,21,20.70
2017,05,25,15,22,20.70
2017,05,25,15,23,20.80
2017,05,25,15,24,20.90
2017,05,25,15,25,21.00
2017,05,25,15,26,21.00
2017,05,25,15,27,21.00
2017,05,25,15,28,21.00
2017,05,25,15,29,20.90
2017,05,25,15,30,20.90
2017,05,25,15,31,20.90
2017,05,25,15,32,20.90
2017,05,25,15,33,20.90
2017,05,25,15,34,20.80
2017,05,25,15,35,20.80
2017,05,25,15,36,20.80
2017,05,25,15,37,20.80
2017,05,25,15,38,20.80
2017,05,25,15,39,20.70
2017,05,25,15,40,20.80
2017,05,25,15,41,20.80
2017,05,25,15,42,20.80
2017,05,25,15,43,20.90
2017,05,25,15,44,21.00
2017,05,25,15,45,21.00
2017,05,25,15,46,21.10
2017,05,25,15,47,21.10
2017,05,25,15,48,21.20
2017,05,25,15,49,21.20
2017,05,25,15,50,21.20
2017,05,25,15,51,21.20
2017,05,25,15,52,21.20
2017,05,25,15,53,21.20
2017,05,25,15,54,21.20
2017,05,25,15,55,21.30
2017,05,25,15,56,21.40
2017,05,25,15,57,21.40
2017,05,25,15,58,21.50
2017,05,25,15,59,21.60
2017,05,25,16,00,21.60
2017,05,25,16,01,21.60
2017,05,25,16,02,21.60
2017,05,25,16,03,21.60
2017,05,25,16,04,21.60
2017,05,25,16,05,21.60
2017,05,25,16,06,21.60
2017,05,25,16,07,21.70
2017,05,25,16,08,21.70
2017,05,25,16,09,21.80
2017,05,25,16,10,21.90
2017,05,25,16,11,22.00
2017,05,25,16,12,22.10
2017,05,25,16,13,22.20
2017,05,25,16,14,22.20
2017,05,25,16,15,22.30
2017,05,25,16,16,22.30
2017,05,25,16,17,22.30
2017,05,25,16,18,22.30
2017,05,25,16,19,22.30
2017,05,25,16,20,22.30
2017,05,25,16,21,22.30
2017,05,25,16,22,22.30
2017,05,25,16,23,22.30
2017,05,25,16,24,22.30
2017,05,25,16,25,22.30
2017,05,25,16,26,22.30
2017,05,25,16,27,22.30
2017,05,25,16,28,22.30
2017,05,25,16,29,22.30
2017,05,25,16,30,22.30
2017,05,25,16,31,22.30
2017,05,25,16,32,22.30
2017,05,25,16,33,22.30
2017,05,25,16,34,22.30
2017,05,25,16,35,22.20
2017,05,25,16,36,22.20
2017,05,25,16,37,22.20
2017,05,25,16,38,22.20
2017,05,25,16,39,22.20
2017,05,25,16,40,22.10
2017,05,25,16,41,22.10
2017,05,25,16,42,22.20
2017,05,25,16,43,22.20
2017,05,25,16,44,22.20
2017,05,25,16,45,22.20
2017,05,25,16,46,22.20
2017,05,25,16,47,22.10
2017,05,25,16,48,22.20
2017,05,25,16,49,22.20
2017,05,25,16,50,22.20
2017,05,25,16,51,22.30
2017,05,25,16,52,22.30
2017,05,25,16,53,22.30
2017,05,25,16,54,22.30
2017,05,25,16,55,22.40
2017,05,25,16,56,22.40
2017,05,25,16,57,22.40
2017,05,25,16,58,22.40
2017,05,25,16,59,22.50
2017,05,25,17,00,22.50
2017,05,25,17,01,22.50
2017,05,25,17,02,22.60
2017,05,25,17,03,22.60
2017,05,25,17,04,22.70
2017,05,25,17,05,22.80
2017,05,25,17,06,22.80
2017,05,25,17,07,22.90
2017,05,25,17,08,22.90
2017,05,25,17,09,23.00
2017,05,25,17,10,23.00
2017,05,25,17,11,23.10
2017,05,25,17,12,23.10
2017,05,25,17,13,23.10
2017,05,25,17,14,23.20
2017,05,25,17,15,23.30
2017,05,25,17,16,23.40
2017,05,25,17,17,23.50
2017,05,25,17,18,23.50
2017,05,25,17,19,23.60
2017,05,25,17,20,23.50
2017,05,25,17,21,23.50
2017,05,25,17,22,23.50
2017,05,25,17,23,23.50
2017,05,25,17,24,23.50
2017,05,25,17,25,23.60
2017,05,25,17,26,23.60
2017,05,25,17,27,23.60
2017,05,25,17,28,23.70
2017,05,25,17,29,23.70
2017,05,25,17,30,23.70
2017,05,25,17,31,23.80